ACA1545 CYYZ-KMSP

Flight info

Callsign ACA1545
Flight time N/A
Altitude 36000
Route URSAL4 KASED DCT IDIOM MUSCL4
Aircraft A320/M-SDE3FGHIRWY/LB1

Departure

Time N/A
Airport Toronto Pearson International Airport (CYYZ)

Arrival

Time 2026-05-04 20:53
Airport Minneapolis–Saint Paul International Airport / Wold–Chamberlain Field (KMSP)
Time Latitude Longitude Altitude Speed Heading
2026-05-04 20:46 44.81816 -92.82696 5040 ft 221 kts 230°
2026-05-04 20:47 44.80774 -92.84264 5041 ft 217 kts 239°
2026-05-04 20:47 44.80023 -92.86074 5043 ft 212 kts 252°
2026-05-04 20:47 44.79598 -92.88038 5044 ft 208 kts 264°
2026-05-04 20:47 44.79495 -92.90056 5046 ft 206 kts 274°
2026-05-04 20:48 44.79530 -92.92072 5046 ft 206 kts 274°
2026-05-04 20:48 44.79557 -92.94115 4784 ft 213 kts 274°
2026-05-04 20:48 44.79582 -92.96203 4461 ft 213 kts 274°
2026-05-04 20:48 44.79606 -92.98263 4204 ft 205 kts 276°
2026-05-04 20:49 44.79875 -93.00119 3988 ft 189 kts 294°
2026-05-04 20:49 44.80465 -93.01718 3808 ft 181 kts 300°
2026-05-04 20:49 44.81102 -93.03223 3537 ft 176 kts 301°
2026-05-04 20:49 44.81730 -93.04676 3306 ft 172 kts 301°
2026-05-04 20:50 44.82350 -93.06103 3075 ft 169 kts 301°
2026-05-04 20:50 44.82956 -93.07496 2846 ft 164 kts 301°
2026-05-04 20:50 44.83537 -93.08832 2635 ft 157 kts 301°
2026-05-04 20:50 44.84105 -93.10137 2424 ft 155 kts 301°
2026-05-04 20:51 44.84661 -93.11415 2220 ft 146 kts 301°
2026-05-04 20:51 44.85171 -93.12589 2030 ft 137 kts 301°
2026-05-04 20:51 44.85660 -93.13713 1839 ft 132 kts 301°
2026-05-04 20:51 44.86137 -93.14812 1654 ft 131 kts 299°
2026-05-04 20:52 44.86613 -93.15908 1465 ft 131 kts 298°
2026-05-04 20:52 44.87089 -93.17008 1281 ft 131 kts 298°
2026-05-04 20:52 44.87569 -93.18110 1094 ft 132 kts 299°
2026-05-04 20:52 44.88038 -93.19188 902 ft 130 kts 297°
2026-05-04 20:53 44.88486 -93.20224 830 ft 111 kts 297°
2026-05-04 20:53 44.88806 -93.20970 824 ft 52 kts 301°
2026-05-04 20:53 44.88908 -93.21217 826 ft 15 kts 280°
2026-05-04 20:53 44.88855 -93.21321 824 ft 11 kts 224°
2026-05-04 20:54 44.88827 -93.21313 825 ft 5 kts 120°
2026-05-04 20:54 44.88804 -93.21267 825 ft 5 kts 152°
2026-05-04 20:54 44.88783 -93.21286 825 ft 4 kts 215°
2026-05-04 20:54 44.88732 -93.21351 823 ft 13 kts 225°
2026-05-04 20:55 44.88666 -93.21444 821 ft 14 kts 225°
2026-05-04 20:55 44.88593 -93.21547 825 ft 16 kts 225°
2026-05-04 20:55 44.88537 -93.21599 826 ft 9 kts 183°
2026-05-04 20:55 44.88490 -93.21556 825 ft 8 kts 130°
2026-05-04 20:56 44.88463 -93.21480 824 ft 10 kts 113°
2026-05-04 20:56 44.88437 -93.21394 825 ft 9 kts 113°
2026-05-04 20:56 44.88413 -93.21313 825 ft 10 kts 113°
2026-05-04 20:56 44.88419 -93.21274 825 ft 4 kts 49°
2026-05-04 20:57 44.88435 -93.21255 825 ft 2 kts 41°
2026-05-04 20:57 44.88446 -93.21241 825 ft 2 kts 41°
2026-05-04 20:57 44.88449 -93.21238 825 ft 0 kts 41°
2026-05-04 21:12 44.88431 -93.21261 824 ft 4 kts 54°
2026-05-04 21:12 44.88420 -93.21286 825 ft 4 kts 47°